| time (UTC) | temp F | wind direction | speed knots | gust knots | rain 1hr in | rain 24hr in | rain mn in | humidity % | barometer mb |
| 20260510132517 | 48 | 270 | 3.5 | 6.1 | 0.00 | 0.00 | 0.00 | 55 | 1018.7 |
| 20260510131517 | 47 | 270 | 3.5 | 8.7 | 0.00 | 0.00 | 0.00 | 56 | 1018.6 |
| 20260510130517 | 47 | 270 | 2.6 | 5.2 | 0.00 | 0.00 | 0.00 | 59 | 1018.7 |
| 20260510125517 | 45 | 270 | 2.6 | 6.1 | 0.00 | 0.00 | 0.00 | 61 | 1018.7 |
| 20260510124517 | 44 | 270 | 2.6 | 5.2 | 0.00 | 0.00 | 0.00 | 61 | 1018.6 |
| 20260510123537 | 43 | 270 | 1.7 | 3.5 | 0.00 | 0.00 | 0.00 | 64 | 1018.4 |
| 20260510122517 | 42 | 270 | 2.6 | 5.2 | 0.00 | 0.00 | 0.00 | 65 | 1018.2 |
| 20260510121537 | 39 | 270 | 1.7 | 3.5 | 0.00 | 0.00 | 0.00 | 71 | 1018.1 |
| 20260510120537 | 38 | 270 | 2.6 | 3.5 | 0.00 | 0.00 | 0.00 | 73 | 1018.0 |
| 20260510115517 | 37 | 270 | 1.7 | 2.6 | 0.00 | 0.00 | 0.00 | 74 | 1017.7 |
| 20260510114517 | 38 | 270 | 1.7 | 2.6 | 0.00 | 0.00 | 0.00 | 72 | 1017.7 |
| 20260510113517 | 39 | 270 | 1.7 | 2.6 | 0.00 | 0.00 | 0.00 | 66 | 1017.6 |
| 20260510112517 | 38 | 0.0 | 1.7 | 0.00 | 0.00 | 0.00 | 66 | 1017.4 | |
| 20260510111557 | 37 | 270 | 0.9 | 2.6 | 0.00 | 0.00 | 0.00 | 68 | 1017.3 |
| 20260510110517 | 37 | 270 | 1.7 | 2.6 | 0.00 | 0.00 | 0.00 | 71 | 1017.4 |
| 20260510105516 | 36 | 270 | 1.7 | 3.5 | 0.00 | 0.00 | 0.00 | 70 | 1017.1 |
| 20260510104516 | 35 | 270 | 1.7 | 3.5 | 0.00 | 0.00 | 0.00 | 77 | 1017.2 |
| 20260510103517 | 36 | 270 | 1.7 | 2.6 | 0.00 | 0.00 | 0.00 | 73 | 1017.2 |
| 20260510102517 | 37 | 270 | 1.7 | 2.6 | 0.00 | 0.00 | 0.00 | 72 | 1017.0 |
| 20260510101517 | 39 | 270 | 1.7 | 3.5 | 0.00 | 0.00 | 0.00 | 63 | 1017.1 |
| 20260510100516 | 40 | 293 | 1.7 | 2.6 | 0.00 | 0.00 | 0.00 | 60 | 1017.0 |
| 20260510095517 | 40 | 293 | 1.7 | 2.6 | 0.00 | 0.00 | 0.00 | 60 | 1016.9 |
| 20260510094516 | 40 | 293 | 1.7 | 2.6 | 0.00 | 0.00 | 0.00 | 59 | 1016.5 |
| 20260510093516 | 40 | 293 | 1.7 | 2.6 | 0.00 | 0.00 | 0.00 | 60 | 1016.4 |
| 20260510092516 | 40 | 293 | 2.6 | 3.5 | 0.00 | 0.00 | 0.00 | 62 | 1016.0 |
| 20260510091516 | 40 | 293 | 2.6 | 2.6 | 0.00 | 0.00 | 0.00 | 62 | 1016.1 |
| 20260510090517 | 40 | 270 | 1.7 | 2.6 | 0.00 | 0.00 | 0.00 | 60 | 1016.0 |
| 20260510085516 | 40 | 270 | 1.7 | 2.6 | 0.00 | 0.00 | 0.00 | 60 | 1015.8 |
| 20260510084537 | 40 | 293 | 1.7 | 3.5 | 0.00 | 0.00 | 0.00 | 60 | 1015.7 |
| 20260510083516 | 40 | 293 | 1.7 | 2.6 | 0.00 | 0.00 | 0.00 | 61 | 1015.6 |
| 20260510082516 | 41 | 293 | 2.6 | 6.1 | 0.00 | 0.00 | 0.00 | 60 | 1015.5 |
| 20260510081516 | 41 | 293 | 2.6 | 4.3 | 0.00 | 0.00 | 0.00 | 58 | 1015.3 |
| 20260510080556 | 40 | 293 | 2.6 | 4.3 | 0.00 | 0.00 | 0.00 | 59 | 1015.2 |
| 20260510075517 | 40 | 293 | 2.6 | 2.6 | 0.00 | 0.00 | 0.00 | 60 | 1015.0 |
| 20260510074516 | 41 | 293 | 2.6 | 3.5 | 0.00 | 0.00 | 0.00 | 59 | 1015.0 |
| 20260510073516 | 42 | 293 | 2.6 | 4.3 | 0.00 | 0.00 | 0.00 | 55 | 1014.9 |
| 20260510072516 | 42 | 293 | 2.6 | 4.3 | 0.00 | 0.00 | 0.00 | 54 | 1014.7 |
| 20260510071516 | 42 | 293 | 3.5 | 4.3 | 0.00 | 0.00 | 0.00 | 55 | 1014.7 |
| 20260510070558 | 42 | 293 | 2.6 | 4.3 | 0.00 | 0.00 | 0.00 | 57 | 1014.7 |
| 20260510065516 | 43 | 293 | 1.7 | 2.6 | 0.00 | 0.00 | 0.00 | 53 | 1014.6 |
| 20260510064516 | 43 | 293 | 1.7 | 3.5 | 0.00 | 0.00 | 0.00 | 54 | 1014.6 |
| 20260510063516 | 42 | 293 | 1.7 | 2.6 | 0.00 | 0.00 | 0.00 | 55 | 1014.5 |
| 20260510062516 | 42 | 293 | 2.6 | 2.6 | 0.00 | 0.00 | 0.00 | 56 | 1014.3 |
| 20260510061516 | 42 | 293 | 1.7 | 2.6 | 0.00 | 0.00 | 0.00 | 56 | 1014.3 |
| 20260510060536 | 43 | 270 | 2.6 | 3.5 | 0.00 | 0.00 | 0.00 | 57 | 1014.4 |
| 20260510055516 | 44 | 270 | 2.6 | 3.5 | 0.00 | 0.00 | 0.00 | 55 | 1014.4 |
| 20260510054516 | 46 | 293 | 1.7 | 2.6 | 0.00 | 0.00 | 0.00 | 49 | 1014.1 |
| 20260510053536 | 47 | 293 | 2.6 | 4.3 | 0.00 | 0.00 | 0.00 | 45 | 1013.9 |
| 20260510052516 | 48 | 315 | 2.6 | 6.1 | 0.00 | 0.00 | 0.00 | 45 | 1013.8 |
| 20260510051516 | 48 | 315 | 2.6 | 4.3 | 0.00 | 0.00 | 0.00 | 45 | 1013.6 |
| 20260510050516 | 48 | 315 | 2.6 | 7.0 | 0.00 | 0.00 | 0.00 | 45 | 1013.8 |
| 20260510045517 | 48 | 315 | 2.6 | 4.3 | 0.00 | 0.00 | 0.00 | 45 | 1013.7 |
| 20260510044517 | 48 | 315 | 2.6 | 4.3 | 0.00 | 0.00 | 0.00 | 44 | 1013.6 |
| 20260510043517 | 48 | 315 | 2.6 | 5.2 | 0.00 | 0.00 | 0.00 | 44 | 1013.6 |
| 20260510042517 | 49 | 315 | 2.6 | 7.0 | 0.00 | 0.00 | 0.00 | 43 | 1013.6 |
| 20260510041537 | 49 | 315 | 3.5 | 7.0 | 0.00 | 0.00 | 0.00 | 43 | 1013.5 |
| 20260510040517 | 49 | 315 | 2.6 | 7.0 | 0.00 | 0.00 | 0.00 | 43 | 1013.3 |
| 20260510035517 | 49 | 315 | 3.5 | 7.0 | 0.00 | 0.00 | 0.00 | 42 | 1013.2 |
| 20260510034517 | 49 | 293 | 2.6 | 4.3 | 0.00 | 0.00 | 0.00 | 41 | 1013.2 |
| 20260510033517 | 50 | 293 | 3.5 | 7.8 | 0.00 | 0.00 | 0.00 | 41 | 1013.1 |
| 20260510032518 | 50 | 315 | 2.6 | 7.0 | 0.00 | 0.00 | 0.00 | 40 | 1012.8 |
| 20260510031517 | 51 | 315 | 2.6 | 6.1 | 0.00 | 0.00 | 0.00 | 39 | 1012.7 |
| 20260510030517 | 51 | 315 | 3.5 | 7.8 | 0.00 | 0.00 | 0.00 | 39 | 1012.5 |
| 20260510025517 | 51 | 315 | 3.5 | 7.8 | 0.00 | 0.00 | 0.00 | 38 | 1012.5 |
| 20260510024517 | 51 | 315 | 2.6 | 5.2 | 0.00 | 0.00 | 0.00 | 38 | 1012.1 |
| 20260510023517 | 52 | 293 | 3.5 | 8.7 | 0.00 | 0.00 | 0.00 | 37 | 1011.9 |
| 20260510022517 | 52 | 315 | 3.5 | 7.8 | 0.00 | 0.00 | 0.00 | 36 | 1011.8 |
| 20260510021557 | 52 | 293 | 2.6 | 7.0 | 0.00 | 0.00 | 0.00 | 37 | 1011.4 |
| 20260510020517 | 52 | 315 | 1.7 | 3.5 | 0.00 | 0.00 | 0.00 | 37 | 1011.4 |
| 20260510015517 | 53 | 315 | 3.5 | 7.8 | 0.00 | 0.00 | 0.00 | 37 | 1011.1 |
| 20260510014517 | 53 | 315 | 3.5 | 7.0 | 0.00 | 0.00 | 0.00 | 36 | 1010.9 |
| 20260510013517 | 54 | 315 | 5.2 | 10.4 | 0.00 | 0.00 | 0.00 | 34 | 1010.7 |
| 20260510012557 | 54 | 315 | 4.3 | 8.7 | 0.00 | 0.00 | 0.00 | 34 | 1010.4 |
| 20260510011516 | 55 | 315 | 4.3 | 9.6 | 0.00 | 0.00 | 0.00 | 34 | 1010.3 |
| 20260510010517 | 56 | 315 | 3.5 | 7.0 | 0.00 | 0.00 | 0.00 | 34 | 1010.0 |
| 20260510005517 | 56 | 315 | 3.5 | 7.8 | 0.00 | 0.00 | 0.00 | 32 | 1009.7 |
| 20260510004517 | 57 | 315 | 2.6 | 8.7 | 0.00 | 0.00 | 0.00 | 34 | 1009.6 |
| 20260510003536 | 57 | 315 | 4.3 | 7.8 | 0.00 | 0.00 | 0.00 | 32 | 1009.3 |
| 20260510002517 | 58 | 315 | 6.1 | 10.4 | 0.00 | 0.00 | 0.00 | 31 | 1009.2 |
| 20260510001516 | 59 | 338 | 6.1 | 12.2 | 0.00 | 0.00 | 0.00 | 32 | 1009.2 |
| 20260510000518 | 59 | 315 | 6.1 | 10.4 | 0.00 | 0.00 | 0.00 | 31 | 1008.9 |
| 20260509235517 | 60 | 293 | 5.2 | 11.3 | 0.00 | 0.00 | 0.00 | 31 | 1008.7 |
| 20260509234516 | 60 | 315 | 7.8 | 13.0 | 0.00 | 0.00 | 0.00 | 31 | 1008.7 |
| 20260509233516 | 60 | 293 | 5.2 | 11.3 | 0.00 | 0.00 | 0.00 | 32 | 1008.7 |
| 20260509232516 | 60 | 315 | 7.8 | 13.0 | 0.00 | 0.00 | 0.00 | 33 | 1008.6 |
| 20260509231517 | 61 | 338 | 7.8 | 13.9 | 0.00 | 0.00 | 0.00 | 33 | 1008.5 |
| 20260509230517 | 61 | 338 | 7.0 | 11.3 | 0.00 | 0.00 | 0.00 | 30 | 1008.2 |
| 20260509225516 | 61 | 338 | 8.7 | 15.6 | 0.00 | 0.00 | 0.00 | 33 | 1008.0 |
| 20260509224516 | 61 | 293 | 8.7 | 15.6 | 0.00 | 0.00 | 0.00 | 35 | 1007.7 |
| 20260509223516 | 62 | 315 | 7.8 | 15.6 | 0.00 | 0.00 | 0.00 | 35 | 1007.9 |
| 20260509222536 | 62 | 338 | 7.8 | 13.9 | 0.00 | 0.00 | 0.00 | 37 | 1007.7 |
| 20260509221516 | 62 | 315 | 7.8 | 13.9 | 0.00 | 0.00 | 0.00 | 38 | 1007.7 |
| 20260509220516 | 62 | 270 | 7.8 | 13.9 | 0.00 | 0.00 | 0.00 | 36 | 1007.4 |
| 20260509215516 | 62 | 315 | 7.0 | 13.9 | 0.00 | 0.00 | 0.00 | 37 | 1007.3 |
| 20260509214516 | 61 | 315 | 8.7 | 13.9 | 0.00 | 0.00 | 0.00 | 37 | 1007.2 |
| 20260509213516 | 61 | 315 | 8.7 | 15.6 | 0.00 | 0.00 | 0.00 | 39 | 1007.2 |
| 20260509212516 | 62 | 338 | 8.7 | 17.4 | 0.00 | 0.00 | 0.00 | 38 | 1007.2 |
| 20260509211516 | 61 | 315 | 9.6 | 16.5 | 0.00 | 0.00 | 0.00 | 37 | 1007.0 |
| 20260509210516 | 61 | 315 | 10.4 | 13.9 | 0.00 | 0.00 | 0.00 | 37 | 1007.0 |
| 20260509205516 | 61 | 293 | 7.8 | 16.5 | 0.00 | 0.00 | 0.00 | 37 | 1006.9 |
| 20260509204516 | 61 | 315 | 7.0 | 14.8 | 0.00 | 0.00 | 0.00 | 43 | 1006.9 |
| 20260509203516 | 61 | 315 | 7.8 | 14.8 | 0.00 | 0.00 | 0.00 | 40 | 1006.8 |
| 20260509202538 | 62 | 338 | 7.8 | 17.4 | 0.00 | 0.00 | 0.00 | 39 | 1007.0 |
| 20260509201536 | 61 | 315 | 7.0 | 14.8 | 0.00 | 0.00 | 0.00 | 41 | 1006.7 |
| 20260509200518 | 60 | 315 | 9.6 | 16.5 | 0.00 | 0.00 | 0.00 | 43 | 1006.7 |
| 20260509195538 | 60 | 315 | 8.7 | 13.9 | 0.00 | 0.00 | 0.00 | 44 | 1006.5 |
| 20260509194516 | 61 | 270 | 9.6 | 18.2 | 0.00 | 0.00 | 0.00 | 43 | 1006.5 |
| 20260509193516 | 61 | 315 | 10.4 | 22.6 | 0.00 | 0.00 | 0.00 | 43 | 1006.4 |
| 20260509192518 | 61 | 315 | 9.6 | 17.4 | 0.00 | 0.00 | 0.00 | 41 | 1006.5 |
| 20260509191536 | 61 | 315 | 9.6 | 17.4 | 0.00 | 0.00 | 0.00 | 45 | 1006.3 |
| 20260509190518 | 62 | 338 | 7.8 | 20.9 | 0.00 | 0.00 | 0.00 | 46 | 1006.0 |
| 20260509185516 | 61 | 293 | 9.6 | 18.2 | 0.00 | 0.00 | 0.00 | 43 | 1006.0 |
| 20260509184516 | 61 | 315 | 9.6 | 16.5 | 0.00 | 0.00 | 0.00 | 47 | 1006.1 |
| 20260509183516 | 61 | 338 | 7.8 | 14.8 | 0.00 | 0.00 | 0.00 | 50 | 1005.8 |
| 20260509182516 | 60 | 315 | 7.0 | 14.8 | 0.00 | 0.00 | 0.00 | 52 | 1005.8 |
| 20260509181516 | 60 | 315 | 7.8 | 14.8 | 0.00 | 0.00 | 0.00 | 50 | 1005.9 |
| 20260509180516 | 61 | 338 | 8.7 | 16.5 | 0.00 | 0.00 | 0.00 | 52 | 1005.9 |
| 20260509175516 | 61 | 315 | 7.8 | 13.9 | 0.00 | 0.00 | 0.00 | 53 | 1005.9 |
| 20260509174516 | 60 | 315 | 6.1 | 10.4 | 0.00 | 0.00 | 0.00 | 52 | 1005.8 |
| 20260509173616 | 60 | 270 | 9.6 | 17.4 | 0.00 | 0.00 | 0.00 | 47 | 1005.7 |
| 20260509172516 | 60 | 270 | 10.4 | 16.5 | 0.00 | 0.00 | 0.00 | 48 | 1005.6 |
| 20260509171516 | 60 | 315 | 9.6 | 19.1 | 0.00 | 0.00 | 0.00 | 50 | 1005.6 |
| 20260509170516 | 60 | 293 | 8.7 | 14.8 | 0.00 | 0.00 | 0.00 | 50 | 1005.6 |
| 20260509165516 | 60 | 293 | 9.6 | 17.4 | 0.00 | 0.00 | 0.00 | 53 | 1005.5 |
| 20260509164536 | 58 | 315 | 9.6 | 17.4 | 0.00 | 0.00 | 0.00 | 56 | 1005.3 |
| 20260509163516 | 59 | 315 | 8.7 | 17.4 | 0.00 | 0.00 | 0.00 | 56 | 1005.1 |
| 20260509162516 | 60 | 315 | 9.6 | 14.8 | 0.00 | 0.00 | 0.00 | 55 | 1005.0 |
| 20260509161516 | 60 | 293 | 7.0 | 13.0 | 0.00 | 0.00 | 0.00 | 54 | 1004.9 |
| 20260509160536 | 59 | 315 | 8.7 | 14.8 | 0.00 | 0.00 | 0.00 | 54 | 1004.7 |
| 20260509155516 | 59 | 315 | 6.1 | 14.8 | 0.00 | 0.00 | 0.00 | 56 | 1004.6 |
| 20260509154516 | 59 | 270 | 7.8 | 17.4 | 0.00 | 0.00 | 0.00 | 55 | 1004.5 |
| 20260509153516 | 60 | 315 | 7.0 | 13.9 | 0.00 | 0.00 | 0.00 | 50 | 1004.4 |
| 20260509152516 | 59 | 293 | 6.1 | 12.2 | 0.00 | 0.00 | 0.00 | 46 | 1004.1 |
| 20260509151516 | 58 | 270 | 7.0 | 11.3 | 0.00 | 0.00 | 0.00 | 46 | 1004.0 |
| 20260509150516 | 58 | 270 | 5.2 | 9.6 | 0.00 | 0.00 | 0.00 | 48 | 1003.8 |
| 20260509145518 | 57 | 248 | 6.1 | 10.4 | 0.00 | 0.00 | 0.00 | 48 | 1004.0 |
| 20260509144516 | 56 | 225 | 3.5 | 8.7 | 0.00 | 0.00 | 0.00 | 52 | 1003.7 |
| 20260509143536 | 55 | 248 | 1.7 | 5.2 | 0.00 | 0.00 | 0.00 | 57 | 1003.8 |
| 20260509142516 | 54 | 248 | 1.7 | 4.3 | 0.00 | 0.00 | 0.00 | 52 | 1003.7 |
| 20260509141516 | 55 | 270 | 1.7 | 4.3 | 0.00 | 0.00 | 0.00 | 52 | 1003.7 |
| 20260509140516 | 55 | 248 | 1.7 | 6.1 | 0.00 | 0.00 | 0.00 | 49 | 1003.9 |
| 20260509135536 | 55 | 270 | 1.7 | 5.2 | 0.00 | 0.00 | 0.00 | 50 | 1004.3 |
| 20260509134516 | 54 | 293 | 1.7 | 5.2 | 0.00 | 0.00 | 0.00 | 50 | 1004.0 |
| 20260509133516 | 54 | 270 | 3.5 | 7.0 | 0.00 | 0.00 | 0.00 | 51 | 1003.9 |